Weather in Pankovo

Russia / Kostroma Oblast     57°43′18″N   43°14′34″E
temp.,
°C
wind,
m/s
gust,
m/s
humid.,
%
clouds,
%
prec.,
mm/h
press.,
hPa
HPBL,
m
14 may, fri
fri1400:00+13s259823 1.2 1017129
03:00+12wsw22973 1.2 101934
06:00+13sw13900 0.0 1019126
09:00+18sw1267100 0.0 1019601
12:00+22s1249100 0.0 10191310
15:00+23sw124466 0.0 10181702
18:00+22sw1157100 0.0 101665
21:00+15s117642 0.0 101711
15 may, sat
sat1500:00+15e1183100 0.3 101614
03:00+14se2394100 0.8 101561
06:00+16se2895100 0.4 1014253
09:00+21s3576100 0.4 1014499
12:00+25wsw2352100 0.3 10131464
15:00+25sse3757100 1.4 1010991
18:00+18ne129164 5.2 101093
21:00+15sse210977 5.6 1012307
16 may, sun
sun1600:00+14s29970 0.0 1012202
03:00+13s269817 0.0 1012140
06:00+15s38955 0.0 1013227
09:00+19ssw48719 0.0 1013794
12:00+22ssw5850100 0.0 10131710
15:00+23ssw594753 0.0 10122493
18:00+18ssw2873100 0.1 1012242
21:00+14ssw28860 0.1 1014179
17 may, mon
mon1700:00+13sw39910 0.0 1015199
03:00+11sw2496100 0.0 101685
06:00+14wsw2386100 0.0 1016140
09:00+19sw2363100 0.0 1017733
12:00+22ssw3451100 0.0 10171255
15:00+24s234657 0.0 10161463
18:00+22sse1262100 0.0 1015188
21:00+16e228377 0.3 101536
18 may, tue
tue1800:00+15ese269327 0.1 1015116
03:00+14se23955 0.1 101447
06:00+17se278625 0.0 1014173
09:00+24sse36515 0.0 1014524
12:00+28s49325 0.0 10132399
15:00+29sse47285 0.0 10122852
18:00+25sse49505 0.0 1011559
21:00+18se313765 0.0 1011264